Weather History for Worthington, MN

Change the Weather History Date:

Wednesday, April 2, 2014

  Actual Average Record
Temperature  
Mean Temperature 31 °F -  
Max Temperature 41 °F 45 °F 84 °F (2012)
Min Temperature 21 °F 28 °F 10 °F (1975)
Degree Days  
Heating Degree Days 34    
Moisture  
Dew Point 22 °F    
Average Humidity 68    
Maximum Humidity 80    
Minimum Humidity 53    
Precipitation  
Precipitation 0.00 in - - ()
Sea Level Pressure  
Sea Level Pressure 30.05 in    
Wind  
Wind Speed 12 mph (NE)    
Max Wind Speed 20 mph    
Max Gust Speed 25 mph    
Visibility 10 miles    
Events      
Averages and records for this station are not official NWS values.
T = Trace of Precipitation, MM = Missing Value Source: NWS Daily Summary

Daily Weather History Graph

Daily Weather History Graph

Search for Another Location

Airport:

Trip Planner

Search our weather history database for the weather conditions in past years. The results will help you decide how hot, cold, wet, or windy it might be!

Date:

Astronomy

Apr. 02, 2014 Rise Set
Actual Time 7:02 AM CDT 7:50 PM CDT
Civil Twilight 6:33 AM CDT 8:19 PM CDT
Nautical Twilight 5:58 AM CDT 8:54 PM CDT
Astronomical Twilight 5:22 AM CDT 9:30 PM CDT
Moon 8:42 AM CDT (4/2) 11:20 PM CDT (4/2)
Length of Visible Light 13h 46m
Length of Day
12h 48m
Waxing Crescent, 10% of the Moon is Illuminated
Apr 2
Waxing Crescent
Apr 7
First Quarter
Apr 15
Full
Apr 22
Last Quarter
Apr 29
New

Hourly Weather History & Observations

Time (CDT) Temp. Windchill Dew Point Humidity Pressure Visibility Wind Dir Wind Speed Gust Speed Precip Events Conditions
12:15 AM 26.6 °F 18.2 °F 19.4 °F 74% 30.12 in 10.0 mi North 8.1 mph - N/A   Partly Cloudy
12:35 AM 24.8 °F 16.9 °F 19.4 °F 80% 30.13 in 10.0 mi North 6.9 mph - N/A   Clear
12:55 AM 24.8 °F 16.9 °F 17.6 °F 74% 30.13 in 10.0 mi North 6.9 mph - N/A   Clear
1:15 AM 24.8 °F 17.9 °F 17.6 °F 74% 30.13 in 10.0 mi North 5.8 mph - N/A   Clear
1:35 AM 24.8 °F 17.9 °F 17.6 °F 74% 30.13 in 10.0 mi North 5.8 mph - N/A   Clear
1:55 AM 24.8 °F 16.9 °F 17.6 °F 74% 30.13 in 10.0 mi North 6.9 mph - N/A   Clear
2:15 AM 24.8 °F 16.9 °F 17.6 °F 74% 30.12 in 10.0 mi North 6.9 mph - N/A   Clear
2:35 AM 24.8 °F 16.9 °F 17.6 °F 74% 30.12 in 10.0 mi NNE 6.9 mph - N/A   Clear
2:55 AM 24.8 °F 16.9 °F 17.6 °F 74% 30.12 in 10.0 mi NNE 6.9 mph - N/A   Clear
3:15 AM 23.0 °F 13.9 °F 17.6 °F 80% 30.12 in 10.0 mi NNE 8.1 mph - N/A   Clear
3:35 AM 23.0 °F 13.1 °F 15.8 °F 74% 30.12 in 10.0 mi North 9.2 mph - N/A   Clear
3:55 AM 23.0 °F 14.7 °F 15.8 °F 74% 30.10 in 10.0 mi NNE 6.9 mph - N/A   Clear
4:15 AM 23.0 °F 12.4 °F 15.8 °F 74% 30.10 in 10.0 mi NNE 10.4 mph - N/A   Clear
4:35 AM 23.0 °F 13.1 °F 15.8 °F 74% 30.10 in 10.0 mi NNE 9.2 mph - N/A   Clear
4:55 AM 23.0 °F 11.7 °F 15.8 °F 74% 30.10 in 10.0 mi North 11.5 mph - N/A   Clear
5:15 AM 21.2 °F 10.1 °F 15.8 °F 80% 30.09 in 10.0 mi NNE 10.4 mph - N/A   Clear
5:35 AM 21.2 °F 8.9 °F 15.8 °F 80% 30.09 in 10.0 mi NNE 12.7 mph - N/A   Clear
5:55 AM 21.2 °F 8.9 °F 15.8 °F 80% 30.09 in 10.0 mi NNE 12.7 mph - N/A   Partly Cloudy
6:15 AM 21.2 °F 10.1 °F 15.8 °F 80% 30.11 in 10.0 mi NE 10.4 mph - N/A   Mostly Cloudy
7:55 AM 21.2 °F 9.5 °F 15.8 °F 80% 30.12 in 10.0 mi NE 11.5 mph - N/A   Partly Cloudy
8:15 AM 21.2 °F 8.9 °F 15.8 °F 80% 30.11 in 10.0 mi NE 12.7 mph - N/A   Clear
8:35 AM 23.0 °F 11.7 °F 15.8 °F 74% 30.11 in 10.0 mi NE 11.5 mph - N/A   Clear
8:55 AM 23.0 °F 10.6 °F 15.8 °F 74% 30.10 in 10.0 mi NE 13.8 mph - N/A   Clear
9:15 AM 24.8 °F 12.9 °F 17.6 °F 74% 30.10 in 10.0 mi ENE 13.8 mph - N/A   Scattered Clouds
9:35 AM 24.8 °F 13.4 °F 17.6 °F 74% 30.10 in 10.0 mi NE 12.7 mph - N/A   Scattered Clouds
9:55 AM 26.6 °F 14.7 °F 19.4 °F 74% 30.10 in 10.0 mi ENE 15.0 mph - N/A   Partly Cloudy
10:15 AM 28.4 °F 17.5 °F 19.4 °F 69% 30.10 in 10.0 mi ENE 13.8 mph - N/A   Partly Cloudy
10:35 AM 28.4 °F 17.0 °F 19.4 °F 69% 30.11 in 10.0 mi East 15.0 mph - N/A   Mostly Cloudy
10:55 AM 30.2 °F 19.8 °F 19.4 °F 64% 30.11 in 10.0 mi East 13.8 mph - N/A   Scattered Clouds
11:15 AM 30.2 °F 19.8 °F 21.2 °F 69% 30.10 in 10.0 mi East 13.8 mph - N/A   Clear
11:35 AM 32.0 °F 21.6 °F 21.2 °F 64% 30.09 in 10.0 mi East 15.0 mph 19.6 mph N/A   Partly Cloudy
11:55 AM 32.0 °F 21.2 °F 21.2 °F 64% 30.10 in 10.0 mi East 16.1 mph - N/A   Clear
12:15 PM 33.8 °F 24.3 °F 21.2 °F 60% 30.10 in 10.0 mi East 13.8 mph - N/A   Clear
12:55 PM 35.6 °F 26.2 °F 21.2 °F 56% 30.09 in 10.0 mi East 15.0 mph 18.4 mph N/A   Clear
1:15 PM 35.6 °F 25.9 °F 23.0 °F 60% 30.08 in 10.0 mi ENE 16.1 mph - N/A   Clear
1:35 PM 37.4 °F 28.2 °F 23.0 °F 56% 30.07 in 10.0 mi East 16.1 mph - N/A   Clear
1:55 PM 37.4 °F 28.9 °F 24.8 °F 60% 30.06 in 10.0 mi East 13.8 mph - N/A   Clear
2:15 PM 37.4 °F 27.5 °F 24.8 °F 60% 30.05 in 10.0 mi East 18.4 mph - N/A   Clear
2:35 PM 39.2 °F 29.6 °F 24.8 °F 56% 30.04 in 10.0 mi East 19.6 mph 24.2 mph N/A   Clear
2:55 PM 39.2 °F 29.8 °F 24.8 °F 56% 30.03 in 10.0 mi East 18.4 mph 23.0 mph N/A   Clear
3:15 PM 39.2 °F 29.8 °F 24.8 °F 56% 30.03 in 10.0 mi ENE 18.4 mph 25.3 mph N/A   Clear
3:35 PM 41.0 °F 31.9 °F 24.8 °F 53% 30.02 in 10.0 mi East 19.6 mph - N/A   Partly Cloudy
3:55 PM 41.0 °F 31.9 °F 24.8 °F 53% 30.00 in 10.0 mi East 19.6 mph - N/A   Partly Cloudy
4:15 PM 41.0 °F 31.9 °F 24.8 °F 53% 29.99 in 10.0 mi East 19.6 mph - N/A   Partly Cloudy
4:35 PM 41.0 °F 31.9 °F 24.8 °F 53% 29.99 in 10.0 mi ENE 19.6 mph - N/A   Partly Cloudy
4:55 PM 41.0 °F 32.2 °F 24.8 °F 53% 29.99 in 10.0 mi ENE 18.4 mph - N/A   Mostly Cloudy
5:15 PM 39.2 °F 29.8 °F 24.8 °F 56% 29.99 in 10.0 mi ENE 18.4 mph - N/A   Mostly Cloudy
5:35 PM 39.2 °F 29.6 °F 24.8 °F 56% 29.98 in 10.0 mi ENE 19.6 mph - N/A   Overcast
5:55 PM 39.2 °F 30.2 °F 24.8 °F 56% 29.98 in 10.0 mi ENE 17.3 mph 25.3 mph N/A   Overcast
6:15 PM 39.2 °F 29.8 °F 26.6 °F 61% 29.97 in 10.0 mi ENE 18.4 mph - N/A   Overcast
6:35 PM 39.2 °F 30.5 °F 26.6 °F 61% 29.98 in 10.0 mi ENE 16.1 mph - N/A   Overcast
6:55 PM 39.2 °F 32.5 °F 26.6 °F 61% 29.99 in 10.0 mi ENE 10.4 mph - N/A   Overcast
7:15 PM 37.4 °F 28.2 °F 26.6 °F 65% 29.97 in 10.0 mi ENE 16.1 mph - N/A   Overcast
7:35 PM 37.4 °F 27.8 °F 26.6 °F 65% 29.95 in 10.0 mi ENE 17.3 mph - N/A   Overcast
7:55 PM 37.4 °F 28.9 °F 28.4 °F 70% 29.96 in 10.0 mi NE 13.8 mph - N/A   Overcast
8:15 PM 37.4 °F 27.8 °F 28.4 °F 70% 29.96 in 10.0 mi ENE 17.3 mph - N/A   Mostly Cloudy
8:35 PM 37.4 °F 27.5 °F 28.4 °F 70% 29.95 in 10.0 mi ENE 18.4 mph - N/A   Overcast
8:55 PM 37.4 °F 28.2 °F 26.6 °F 65% 29.97 in 10.0 mi NE 16.1 mph - N/A   Overcast
9:15 PM 35.6 °F 26.2 °F 26.6 °F 70% 29.99 in 10.0 mi NE 15.0 mph - N/A   Mostly Cloudy
9:35 PM 35.6 °F 26.6 °F 26.6 °F 70% 29.99 in 10.0 mi NE 13.8 mph - N/A   Overcast
9:55 PM 35.6 °F 26.6 °F 26.6 °F 70% 29.99 in 5.0 mi NE 13.8 mph - N/A   Overcast
10:15 PM 33.8 °F 23.9 °F 26.6 °F 75% 29.99 in 7.0 mi NE 15.0 mph - N/A   Overcast
10:35 PM 33.8 °F 22.8 °F 26.6 °F 75% 29.99 in 10.0 mi NE 18.4 mph 21.9 mph N/A   Overcast
11:15 PM 33.8 °F 23.2 °F 26.6 °F 75% 29.98 in 10.0 mi ENE 17.3 mph - N/A   Overcast
11:35 PM 33.8 °F 23.2 °F 26.6 °F 75% 29.98 in 10.0 mi ENE 17.3 mph - N/A   Overcast
11:55 PM 33.8 °F 23.5 °F 26.6 °F 75% 29.97 in 10.0 mi ENE 16.1 mph - N/A   Overcast